CYGNSS FM08

operational
NORAD ID: 41888 Int'l Des: 2016-078 Owner: LARCN/SWRIB Country: US
LEOCIRCULAR

关于 CYGNSS FM08

正在加载描述...

实时位置

正在加载3D地球...

即将过境

高度历史

Altitude vs Time

uPlot chart will show altitude changes over time

两行轨道根数

1 41888U 16078E 26072.62456750 .00030385 00000-0 44163-3 0 9993
2 41888 34.9433 154.9395 0007643 341.3808 18.6635 15.54723733514065
Epoch: Mar 13, 2026 • Age: 24 hours

当前状态

高度 398.2 km
速度 7.68 km/s
星下点 -8.92°S, 34.66°W
发射日期 Dec 15, 2016
运行时间 9.2 years
类型 other

技术详情

分类 Payload
质量 29.00 kg
干质量 29.00 kg
总质量 29.00 kg
长度 0.27 m
直径 0.64 m
跨度 1.70 m
形状 Trunc prism+2 pan
制造商 SSTUS
平台类型 CYGNSS
阶段状态 In Orbit
所有者/国家 LARCN/SWRIB/US

大型星座

Loading constellations...